CDT,Max TemperatureF,Mean TemperatureF,Min TemperatureF,Max Dew PointF,MeanDew PointF,Min DewpointF,Max Humidity, Mean Humidity, Min Humidity, Max Sea Level PressureIn, Mean Sea Level PressureIn, Min Sea Level PressureIn, Max VisibilityMiles, Mean VisibilityMiles, Min VisibilityMiles, Max Wind SpeedMPH, Mean Wind SpeedMPH, Max Gust SpeedMPH,PrecipitationIn, CloudCover, Events, WindDirDegrees
2013-9-1,66,58,51,61,55,47,100,80,56,30.07,29.91,29.76,10,10,10,18,12,24,0.00,6,,324
2013-9-2,71,60,50,50,47,43,96,66,36,30.14,30.08,30.04,10,10,10,10,4,,0.00,4,,333
2013-9-3,82,63,44,59,50,43,100,80,39,30.06,30.03,29.97,10,8,0,12,2,,0.00,0,Fog,221
2013-9-4,77,67,57,60,51,40,93,61,27,30.20,30.13,30.03,10,10,10,9,5,,0.00,0,,28
2013-9-5,82,65,48,59,52,45,90,63,37,30.25,30.17,30.06,10,10,10,14,5,17,0.00,0,,140
2013-9-6,90,76,64,69,65,60,97,71,46,30.05,29.93,29.86,10,10,8,10,5,,0.00,0,,184
2013-9-7,84,73,64,69,63,57,100,74,49,30.09,29.99,29.90,10,9,4,12,3,17,0.00,1,,35
2013-9-8,66,62,57,61,56,49,100,88,62,30.09,30.00,29.90,10,8,1,12,8,,0.12,7,Rain,129
2013-9-9,71,65,59,70,65,57,100,96,87,29.90,29.74,29.67,10,7,2,15,7,23,0.25,7,Rain,204
2013-9-10,75,68,60,64,61,58,100,86,55,29.96,29.87,29.77,10,10,8,14,8,21,0.00,5,,260
2013-9-11,80,66,51,59,53,45,96,69,34,30.15,30.03,29.94,10,10,10,24,8,30,0.01,1,,288
2013-9-12,70,58,46,52,46,41,100,74,38,30.29,30.24,30.15,10,10,10,15,6,23,0.00,2,,348
2013-9-13,72,54,39,48,44,37,100,74,42,30.28,30.20,30.03,10,10,9,12,3,17,0.00,1,,186
2013-9-14,71,57,46,56,52,44,100,91,59,30.02,29.93,29.89,10,7,2,16,7,22,1.21,6,Rain,156
2013-9-15,62,51,41,54,48,40,100,81,48,30.37,30.17,29.96,10,10,10,14,5,22,0.00,5,Rain,19
2013-9-16,64,50,35,45,39,35,100,83,38,30.41,30.35,30.20,10,6,0,14,3,18,0.00,3,Fog,163
2013-9-17,61,53,45,55,50,42,94,84,75,30.19,30.03,29.89,10,10,7,23,13,30,0.00,6,,158
2013-9-18,70,62,55,67,62,55,100,96,87,29.88,29.74,29.64,8,4,0,16,11,20,0.01,7,Fog,143
2013-9-19,71,63,55,67,64,54,100,95,63,29.81,29.70,29.62,10,4,0,20,6,23,0.11,6,Fog-Rain,272
2013-9-20,57,52,48,55,48,42,100,84,67,29.97,29.88,29.80,10,10,7,18,10,22,0.08,8,Rain,314
2013-9-21,60,48,37,44,40,36,100,79,49,30.04,29.99,29.93,10,10,4,7,5,,0.00,2,,346
2013-9-22,71,58,44,53,47,41,90,71,47,29.96,29.86,29.78,10,10,10,23,11,30,0.00,0,,134
2013-9-23,73,64,55,53,51,49,87,68,45,29.87,29.81,29.78,10,10,10,26,16,34,0.00,0,,152
2013-9-24,72,62,52,54,52,50,93,76,53,29.97,29.93,29.88,10,10,10,10,7,,0.00,1,,159
2013-9-25,72,58,44,54,51,45,100,75,47,29.95,29.90,29.84,10,9,2,17,6,24,0.00,0,,138
2013-9-26,78,66,55,59,55,50,84,67,48,29.86,29.81,29.76,10,10,10,23,14,33,0.00,3,,143
2013-9-27,75,69,61,64,62,59,93,79,64,29.82,29.76,29.72,10,9,4,22,14,30,0.12,4,Rain,165
2013-9-28,64,54,45,60,51,42,100,91,69,29.86,29.67,29.55,10,9,2,23,8,29,0.39,6,Rain,270
2013-9-29,73,58,43,48,44,41,93,65,34,29.89,29.80,29.62,10,10,10,16,7,24,0.00,0,,178
2013-9-30,75,63,51,54,50,46,83,62,40,29.60,29.57,29.52,10,10,10,13,9,,0.00,1,,165